Clermont County, Batavia, OH

3:39 PM EST on December 06, 2019 (GMT -0500)
Clermont County, Batavia

Weather History for KI69 - October, 2019

Change the Weather History Date:

Wednesday, October 9, 2019

  Actual Average (WUND) Record (WUND)
Temperature  
Mean Temperature 60 °F -  
Max Temperature 74 °F - - (-1)
Min Temperature 46 °F - - (-1)
Degree Days  
Heating Degree Days 5    
Growing Degree Days 10 (Base 50)    
Moisture  
Dew Point 52 °F    
Average Humidity 78    
Maximum Humidity 98    
Minimum Humidity 54    
Precipitation  
Precipitation 0.00 in - - ()
Sea Level Pressure  
Sea Level Pressure 30.16 in    
Wind  
Wind Speed 1 mph (East)    
Max Wind Speed 8 mph    
Max Gust Speed -    
Visibility 10 miles    
Events      
Averages and records for this station are not official NWS values.
T = Trace of Precipitation, MM = Missing Value Source: NWS Daily Summary

Daily Weather History Graph

Daily Weather History Graph

Search for Another Location

Airport or City:

Astronomy

Oct. 09, 2019 Rise Set
Actual Time 7:40 AM EDT 7:07 PM EDT
Civil Twilight 7:13 AM EDT 7:34 PM EDT
Nautical Twilight 6:42 AM EDT 8:05 PM EDT
Astronomical Twilight 6:11 AM EDT 8:35 PM EDT
Moon 5:36 PM EDT (10/9) 3:28 AM EDT (10/9)
Length of Visible Light 12h 20m
Length of Day
11h 27m
Waxing Gibbous, 85% of the Moon is Illuminated
Oct 9
Waxing Gibbous
Oct 13
Full
Oct 21
Last Quarter
Oct 27
New
Nov 4
First Quarter

Hourly Weather History & Observations

Time (EDT) Temp. Dew Point Humidity Pressure Visibility Wind Dir Wind Speed Gust Speed Precip Events Conditions
12:15 AM 53.8 °F 45.9 °F 75% 30.18 in 10.0 mi Calm Calm - N/A   Clear
12:38 AM 52.0 °F 46.4 °F 81% 30.17 in 10.0 mi Calm Calm - N/A   Clear
12:56 AM 51.8 °F 46.4 °F 82% 30.17 in 10.0 mi Calm Calm - N/A   Clear
1:15 AM 51.4 °F 46.0 °F 82% 30.16 in 10.0 mi Calm Calm - N/A   Clear
1:35 AM 50.4 °F 46.6 °F 87% 30.16 in 10.0 mi Calm Calm - N/A   Clear
1:55 AM 49.5 °F 46.4 °F 89% 30.16 in 10.0 mi Calm Calm - N/A   Clear
2:18 AM 49.1 °F 46.4 °F 90% 30.16 in 10.0 mi Calm Calm - N/A   Clear
2:36 AM 48.9 °F 46.2 °F 90% 30.16 in 10.0 mi Calm Calm - N/A   Clear
2:55 AM 49.1 °F 46.4 °F 90% 30.16 in 10.0 mi Calm Calm - N/A   Clear
3:15 AM 47.3 °F 45.5 °F 93% 30.16 in 10.0 mi Calm Calm - N/A   Clear
3:35 AM 47.3 °F 46.2 °F 96% 30.15 in 10.0 mi Calm Calm - N/A   Clear
3:58 AM 48.6 °F 46.4 °F 92% 30.14 in 10.0 mi Calm Calm - N/A   Clear
4:16 AM 49.1 °F 46.2 °F 90% 30.16 in 10.0 mi Calm Calm - N/A   Clear
4:35 AM 47.8 °F 46.0 °F 93% 30.16 in 10.0 mi Calm Calm - N/A   Clear
4:55 AM 48.7 °F 46.0 °F 90% 30.16 in 10.0 mi Calm Calm - N/A   Clear
5:19 AM 47.3 °F 45.3 °F 93% 30.16 in 10.0 mi Calm Calm - N/A   Clear
5:38 AM 46.9 °F 45.3 °F 94% 30.16 in 10.0 mi Calm Calm - N/A   Clear
5:56 AM 47.5 °F 45.7 °F 93% 30.17 in 10.0 mi Calm Calm - N/A   Clear
6:15 AM 47.1 °F 45.5 °F 94% 30.17 in 10.0 mi Calm Calm - N/A   Clear
6:35 AM 46.2 °F 45.1 °F 96% 30.18 in 10.0 mi Calm Calm - N/A   Clear
6:59 AM 46.8 °F 45.7 °F 96% 30.18 in 10.0 mi Calm Calm - N/A   Clear
7:18 AM 46.6 °F 45.3 °F 95% 30.19 in 10.0 mi Calm Calm - N/A   Clear
7:36 AM 46.8 °F 45.5 °F 95% 30.19 in 10.0 mi Calm Calm - N/A   Clear
7:55 AM 46.4 °F 45.5 °F 97% 30.19 in 10.0 mi Calm Calm - N/A   Clear
8:15 AM 48.2 °F 46.6 °F 94% 30.19 in 10.0 mi Calm Calm - N/A   Clear
8:39 AM 50.2 °F 47.5 °F 90% 30.20 in 10.0 mi Calm Calm - N/A   Clear
8:57 AM 51.4 °F 48.2 °F 89% 30.21 in 10.0 mi Calm Calm - N/A   Clear
9:16 AM 52.5 °F 48.7 °F 87% 30.21 in 10.0 mi Calm Calm - N/A   Clear
9:35 AM 54.0 °F 49.3 °F 84% 30.21 in 10.0 mi Calm Calm - N/A   Clear
9:55 AM 57.2 °F 49.8 °F 76% 30.22 in 10.0 mi Calm Calm - N/A   Clear
10:19 AM 59.2 °F 50.9 °F 74% 30.22 in 10.0 mi Calm Calm - N/A   Clear
10:37 AM 60.4 °F 51.1 °F 71% 30.22 in 10.0 mi Calm Calm - N/A   Clear
10:56 AM 62.8 °F 52.7 °F 70% 30.22 in 10.0 mi East 4.6 mph - N/A   Clear
11:15 AM 64.4 °F 53.6 °F 68% 30.21 in 10.0 mi ENE 3.5 mph - N/A   Clear
11:35 AM 65.8 °F 54.5 °F 67% 30.21 in 10.0 mi ENE 4.6 mph - N/A   Clear
11:59 AM 67.5 °F 55.4 °F 65% 30.20 in 10.0 mi ENE 4.6 mph - N/A   Clear
12:17 PM 66.9 °F 54.7 °F 65% 30.19 in 10.0 mi ENE 4.6 mph - N/A   Clear
12:35 PM 68.7 °F 55.2 °F 62% 30.19 in 10.0 mi East 4.6 mph - N/A   Clear
12:55 PM 69.4 °F 55.4 °F 61% 30.19 in 10.0 mi NE 4.6 mph - N/A   Scattered Clouds
1:15 PM 70.3 °F 55.6 °F 59% 30.18 in 10.0 mi ESE 6.9 mph - N/A   Scattered Clouds
1:39 PM 71.2 °F 56.1 °F 59% 30.16 in 10.0 mi East 8.1 mph - N/A   Scattered Clouds
1:57 PM 71.4 °F 55.8 °F 58% 30.16 in 10.0 mi NE 5.8 mph - N/A   Scattered Clouds
2:15 PM 72.0 °F 55.8 °F 57% 30.14 in 10.0 mi NE 6.9 mph - N/A   Mostly Cloudy
2:35 PM 72.5 °F 55.9 °F 56% 30.14 in 10.0 mi ENE 3.5 mph - N/A   Mostly Cloudy
2:55 PM 74.7 °F 56.8 °F 54% 30.13 in 10.0 mi SSE 8.1 mph - N/A   Overcast
3:19 PM 70.7 °F 55.8 °F 59% 30.13 in 10.0 mi ESE 3.5 mph - N/A   Scattered Clouds
3:37 PM 73.6 °F 56.5 °F 55% 30.13 in 10.0 mi East 3.5 mph - N/A   Clear
3:55 PM 72.1 °F 56.1 °F 57% 30.12 in 10.0 mi Calm Calm - N/A   Clear
4:15 PM 71.1 °F 56.7 °F 60% 30.12 in 10.0 mi Calm Calm - N/A   Clear
4:35 PM 72.5 °F 56.3 °F 57% 30.12 in 10.0 mi ESE 3.5 mph - N/A   Clear
4:36 PM 72.5 °F 56.1 °F 56% 30.12 in 10.0 mi Calm Calm - N/A   Clear
4:59 PM 73.4 °F 56.1 °F 55% 30.11 in 10.0 mi Calm Calm - N/A   Clear
5:17 PM 73.9 °F 56.5 °F 54% 30.11 in 10.0 mi ESE 5.8 mph - N/A   Mostly Cloudy
5:35 PM 73.4 °F 56.5 °F 55% 30.11 in 10.0 mi ESE 4.6 mph - N/A   Overcast
5:55 PM 72.9 °F 56.5 °F 56% 30.11 in 10.0 mi ESE 4.6 mph - N/A   Overcast
6:15 PM 71.6 °F 56.5 °F 59% 30.12 in 10.0 mi Calm Calm - N/A   Mostly Cloudy
6:39 PM 70.3 °F 56.7 °F 62% 30.12 in 10.0 mi Calm Calm - N/A   Scattered Clouds
6:57 PM 69.1 °F 56.8 °F 65% 30.12 in 10.0 mi Calm Calm - N/A   Clear
7:15 PM 68.0 °F 56.7 °F 67% 30.12 in 10.0 mi Calm Calm - N/A   Clear
7:35 PM 67.1 °F 56.5 °F 69% 30.12 in 10.0 mi SE 3.5 mph - N/A   Scattered Clouds
7:55 PM 66.2 °F 56.5 °F 71% 30.13 in 10.0 mi Calm Calm - N/A   Clear
8:18 PM 64.6 °F 56.8 °F 76% 30.13 in 10.0 mi Calm Calm - N/A   Clear
8:37 PM 63.1 °F 57.2 °F 81% 30.14 in 10.0 mi Calm Calm - N/A   Clear
8:55 PM 61.0 °F 56.7 °F 86% 30.14 in 10.0 mi Calm Calm - N/A   Clear
9:15 PM 61.0 °F 56.8 °F 86% 30.16 in 10.0 mi Calm Calm - N/A   Clear
9:35 PM 59.0 °F 56.1 °F 90% 30.16 in 10.0 mi Calm Calm - N/A   Clear
9:58 PM 58.6 °F 57.2 °F 95% 30.16 in 10.0 mi Calm Calm - N/A   Clear
10:16 PM 58.3 °F 55.8 °F 91% 30.16 in 10.0 mi Calm Calm - N/A   Clear
10:35 PM 57.6 °F 56.7 °F 97% 30.16 in 10.0 mi Calm Calm - N/A   Clear
10:55 PM 59.4 °F 56.3 °F 90% 30.16 in 10.0 mi Calm Calm - N/A   Clear
11:16 PM 58.1 °F 55.9 °F 93% 30.16 in 10.0 mi Calm Calm - N/A   Clear
11:35 PM 57.2 °F 56.3 °F 97% 30.16 in 10.0 mi Calm Calm - N/A   Clear
11:55 PM 57.2 °F 56.7 °F 98% 30.16 in 10.0 mi Calm Calm - N/A   Clear